contact:dominique.lefevre@mio.osupytheas.fr, maurice.libes@osupytheas.fr, didier.mallarino@osupytheas.fr
Project:EMSO http://www.emso-fr.org/EMSO-France
Depth: 2436.0 m
Title:EMSO Ligure Ouest : Data MII capteur AQUADOPP
Date,Latitude,Longitude,X_East,Y_North,Z_Up,Amplitude_X,Amplitude_Y,Amplitude_Z,Batterie,SoundSpeed,Heading,Pitch,Roll,Pressure,TIS,Speed,Direction
, degrees North, degrees East, m.s-1, m.s-1,m.s-1, 1, 1, 1, Volt, m.s-1, degree, degree, degree, dbar, degree_C, m.s-1, degree
2020-07-27T00:04:03,42.805,6.029,-0.019,-0.001,0.008,105.0,106.0,102.0,13.4,1505.3,323.6,-0.7,1.8,2470.511,13.31,0.019,267.0
2020-07-27T00:07:03,42.805,6.029,-0.016,-0.011,-0.014,104.0,108.0,102.0,13.4,1505.3,328.3,-0.7,1.8,2470.508,13.32,0.019,235.5
2020-07-27T00:10:03,42.805,6.029,-0.023,-0.017,-0.023,105.0,106.0,102.0,13.4,1505.3,324.3,-0.7,1.8,2470.513,13.32,0.028,233.5
2020-07-27T00:13:03,42.805,6.029,-0.02,-0.008,-0.022,106.0,106.0,102.0,13.4,1505.3,325.5,-0.7,1.8,2470.506,13.32,0.021,248.2
2020-07-27T00:16:03,42.805,6.029,-0.052,0.013,0.001,105.0,106.0,102.0,13.4,1505.3,328.0,-0.7,1.8,2470.504,13.32,0.053,284.0
2020-07-27T00:19:03,42.805,6.029,-0.041,0.0,-0.042,105.0,107.0,102.0,13.3,1505.3,325.9,-0.7,1.8,2470.506,13.33,0.041,270.0
2020-07-27T00:22:03,42.805,6.029,-0.026,0.001,-0.04,106.0,106.0,102.0,13.4,1505.3,328.2,-0.7,1.8,2470.485,13.33,0.026,272.2
2020-07-27T00:25:03,42.805,6.029,0.009,0.003,0.017,105.0,106.0,101.0,13.3,1505.3,326.7,-0.7,1.8,2470.513,13.33,0.009,71.6
2020-07-27T00:28:03,42.805,6.029,0.0,0.027,0.006,106.0,106.0,102.0,13.4,1505.3,327.8,-0.7,1.8,2470.469,13.33,0.026,0.0
2020-07-27T00:31:03,42.805,6.029,-0.039,0.013,0.0,105.0,106.0,103.0,13.3,1505.3,325.5,-0.7,1.8,2470.492,13.33,0.041,288.4
2020-07-27T00:34:03,42.805,6.029,-0.02,0.005,0.003,105.0,107.0,102.0,13.4,1505.3,324.5,-0.7,1.8,2470.52,13.33,0.02,284.0
2020-07-27T00:37:03,42.805,6.029,-0.019,0.009,-0.01,105.0,106.0,102.0,13.3,1505.3,326.5,-0.7,1.8,2470.521,13.33,0.021,295.3
2020-07-27T00:40:03,42.805,6.029,-0.018,-0.008,-0.033,106.0,108.0,102.0,13.4,1505.3,326.9,-0.7,1.8,2470.503,13.33,0.019,246.0
2020-07-27T00:43:03,42.805,6.029,-0.019,-0.002,-0.009,106.0,107.0,102.0,13.4,1505.3,323.0,-0.7,1.8,2470.467,13.33,0.019,264.0
2020-07-27T00:46:03,42.805,6.029,-0.03,-0.001,-0.024,106.0,107.0,101.0,13.4,1505.3,325.6,-0.7,1.8,2470.465,13.33,0.03,268.1
2020-07-27T00:49:03,42.805,6.029,-0.023,-0.002,0.003,106.0,107.0,102.0,13.4,1505.3,323.6,-0.7,1.8,2470.435,13.33,0.023,265.0
2020-07-27T00:52:03,42.805,6.029,-0.038,-0.005,-0.011,105.0,108.0,102.0,13.4,1505.3,324.8,-0.7,1.8,2470.515,13.33,0.038,262.5
2020-07-27T00:55:03,42.805,6.029,0.0,-0.001,0.008,105.0,106.0,102.0,13.3,1505.3,326.0,-0.7,1.8,2470.443,13.33,0.001,180.0
2020-07-27T00:58:03,42.805,6.029,0.003,0.005,0.019,105.0,108.0,102.0,13.4,1505.3,327.7,-0.7,1.8,2470.481,13.33,0.005,31.0
2020-07-27T01:01:03,42.805,6.029,-0.048,-0.01,-0.035,105.0,106.0,102.0,13.3,1505.3,327.9,-0.7,1.8,2470.474,13.33,0.049,258.2
2020-07-27T01:04:03,42.805,6.029,-0.001,0.0,-0.003,105.0,107.0,103.0,13.3,1505.3,326.3,-0.7,1.8,2470.504,13.33,0.001,270.0
2020-07-27T01:07:03,42.805,6.029,-0.035,-0.012,-0.052,105.0,106.0,102.0,13.4,1505.3,323.3,-0.7,1.8,2470.473,13.33,0.037,251.1
2020-07-27T01:10:03,42.805,6.029,-0.009,0.005,0.001,106.0,107.0,102.0,13.4,1505.3,326.5,-0.7,1.8,2470.453,13.33,0.01,299.1
2020-07-27T01:13:03,42.805,6.029,-0.051,0.004,-0.039,106.0,109.0,102.0,13.3,1505.3,328.3,-0.7,1.8,2470.466,13.33,0.051,274.5
2020-07-27T01:16:03,42.805,6.029,-0.029,-0.012,0.003,105.0,108.0,102.0,13.4,1505.3,326.8,-0.7,1.8,2470.473,13.33,0.031,247.5
2020-07-27T01:19:03,42.805,6.029,-0.002,0.0,-0.002,106.0,107.0,102.0,13.4,1505.3,328.1,-0.7,1.8,2470.466,13.33,0.002,270.0
2020-07-27T01:22:03,42.805,6.029,-0.051,-0.015,-0.068,105.0,107.0,102.0,13.3,1505.3,326.3,-0.7,1.8,2470.483,13.33,0.053,253.6
2020-07-27T01:25:03,42.805,6.029,-0.027,-0.001,-0.029,105.0,106.0,102.0,13.4,1505.3,325.8,-0.7,1.8,2470.448,13.33,0.027,267.9
2020-07-27T01:28:03,42.805,6.029,-0.008,-0.004,0.023,105.0,105.0,103.0,13.4,1505.3,325.8,-0.7,1.8,2470.451,13.33,0.008,243.4
2020-07-27T01:31:03,42.805,6.029,-0.047,-0.005,-0.021,105.0,107.0,103.0,13.4,1505.3,328.3,-0.7,1.8,2470.457,13.33,0.047,263.9
2020-07-27T01:34:03,42.805,6.029,-0.027,-0.002,-0.016,106.0,106.0,102.0,13.4,1505.3,327.3,-0.7,1.8,2470.46,13.33,0.027,265.8
2020-07-27T01:37:03,42.805,6.029,-0.036,-0.019,-0.02,106.0,106.0,102.0,13.4,1505.3,326.1,-0.7,1.8,2470.436,13.33,0.04,242.2
2020-07-27T01:40:03,42.805,6.029,-0.011,-0.01,-0.017,106.0,106.0,101.0,13.4,1505.3,323.8,-0.7,1.8,2470.489,13.33,0.014,227.7
2020-07-27T01:43:03,42.805,6.029,-0.011,0.002,-0.02,104.0,108.0,102.0,13.4,1505.3,325.7,-0.7,1.8,2470.476,13.33,0.011,280.3
2020-07-27T01:46:03,42.805,6.029,-0.021,-0.01,0.0,106.0,106.0,102.0,13.4,1505.3,327.9,-0.7,1.8,2470.461,13.33,0.023,244.5
2020-07-27T01:49:03,42.805,6.029,0.005,-0.011,0.033,105.0,108.0,101.0,13.3,1505.3,323.0,-0.7,1.8,2470.467,13.33,0.012,155.6
2020-07-27T01:52:03,42.805,6.029,0.01,-0.007,-0.016,104.0,108.0,102.0,13.4,1505.3,326.3,-0.7,1.9,2470.437,13.33,0.012,125.0
2020-07-27T01:55:03,42.805,6.029,-0.038,-0.014,-0.041,105.0,108.0,101.0,13.4,1505.3,325.0,-0.7,1.8,2470.46,13.33,0.04,249.8
2020-07-27T01:58:03,42.805,6.029,-0.031,0.006,-0.028,105.0,106.0,102.0,13.4,1505.3,326.3,-0.7,1.8,2470.427,13.33,0.031,281.0
2020-07-27T02:04:03,42.805,6.029,-0.061,-0.008,-0.055,104.0,107.0,103.0,13.4,1505.3,327.6,-0.7,1.8,2470.477,13.31,0.061,262.5
2020-07-27T02:07:03,42.805,6.029,-0.025,0.001,-0.006,104.0,106.0,101.0,13.4,1505.3,327.4,-0.7,1.8,2470.427,13.32,0.025,272.3
2020-07-27T02:10:03,42.805,6.029,-0.05,0.0,-0.044,104.0,108.0,102.0,13.4,1505.3,327.7,-0.7,1.8,2470.484,13.32,0.05,270.0
2020-07-27T02:13:03,42.805,6.029,-0.049,0.003,-0.021,105.0,109.0,103.0,13.4,1505.3,324.2,-0.7,1.8,2470.436,13.32,0.049,273.5
2020-07-27T02:16:03,42.805,6.029,-0.012,0.011,-0.019,105.0,108.0,101.0,13.4,1505.3,326.3,-0.7,1.8,2470.498,13.33,0.016,312.5
2020-07-27T02:19:03,42.805,6.029,-0.017,-0.011,-0.032,106.0,106.0,101.0,13.4,1505.3,326.0,-0.7,1.8,2470.494,13.33,0.02,237.1
2020-07-27T02:22:03,42.805,6.029,-0.025,0.007,-0.012,105.0,109.0,102.0,13.4,1505.3,324.6,-0.7,1.8,2470.427,13.33,0.025,285.6
2020-07-27T02:25:03,42.805,6.029,-0.01,-0.014,-0.023,104.0,108.0,102.0,13.3,1505.3,327.0,-0.7,1.8,2470.46,13.33,0.017,215.5
2020-07-27T02:28:03,42.805,6.029,-0.027,-0.004,-0.016,105.0,108.0,101.0,13.4,1505.3,324.7,-0.7,1.9,2470.46,13.33,0.027,261.6
2020-07-27T02:31:03,42.805,6.029,-0.02,0.015,-0.036,105.0,107.0,101.0,13.4,1505.3,324.1,-0.6,1.8,2470.397,13.33,0.025,306.9
2020-07-27T02:37:03,42.805,6.029,-0.032,0.001,-0.02,104.0,107.0,103.0,13.4,1505.3,324.8,-0.7,1.8,2470.459,13.31,0.032,271.8
2020-07-27T02:40:03,42.805,6.029,-0.027,0.002,-0.057,105.0,108.0,102.0,13.3,1505.3,327.9,-0.7,1.8,2470.443,13.32,0.027,274.2
2020-07-27T02:43:03,42.805,6.029,0.002,-0.017,-0.009,106.0,107.0,102.0,13.4,1505.3,326.8,-0.7,1.9,2470.466,13.32,0.017,173.3
2020-07-27T02:46:03,42.805,6.029,-0.005,-0.007,-0.011,106.0,105.0,103.0,13.3,1505.3,325.4,-0.7,1.8,2470.448,13.33,0.008,215.5
2020-07-27T02:49:03,42.805,6.029,-0.043,-0.01,-0.008,106.0,107.0,102.0,13.3,1505.3,323.0,-0.7,1.8,2470.426,13.33,0.044,256.9
2020-07-27T02:52:03,42.805,6.029,-0.015,0.006,0.002,105.0,107.0,102.0,13.3,1505.3,327.9,-0.7,1.8,2470.419,13.33,0.016,291.8
2020-07-27T02:55:03,42.805,6.029,-0.041,-0.009,-0.011,104.0,106.0,103.0,13.4,1505.3,324.3,-0.7,1.8,2470.435,13.33,0.041,257.6
2020-07-27T02:58:03,42.805,6.029,-0.023,0.007,-0.024,104.0,107.0,102.0,13.4,1505.3,323.9,-0.7,1.8,2470.443,13.33,0.024,286.9
2020-07-27T03:04:03,42.805,6.029,-0.047,-0.017,-0.044,105.0,106.0,103.0,13.3,1505.3,325.9,-0.7,1.8,2470.445,13.31,0.049,250.1
2020-07-27T03:07:03,42.805,6.029,-0.032,-0.027,-0.023,104.0,108.0,101.0,13.3,1505.3,324.2,-0.7,1.9,2470.477,13.31,0.041,229.8
2020-07-27T03:10:03,42.805,6.029,-0.033,-0.007,-0.048,107.0,108.0,102.0,13.4,1505.3,327.9,-0.7,1.8,2470.422,13.32,0.033,258.0
2020-07-27T03:13:03,42.805,6.029,-0.035,-0.015,-0.015,105.0,106.0,102.0,13.4,1505.3,327.7,-0.7,1.9,2470.424,13.32,0.038,246.8
2020-07-27T03:16:03,42.805,6.029,0.004,-0.025,-0.003,105.0,107.0,100.0,13.3,1505.3,327.5,-0.7,1.8,2470.472,13.32,0.025,170.9
2020-07-27T03:19:03,42.805,6.029,-0.023,0.004,-0.01,105.0,106.0,102.0,13.3,1505.3,325.8,-0.7,1.8,2470.397,13.33,0.023,279.9
2020-07-27T03:22:03,42.805,6.029,-0.022,-0.012,-0.053,104.0,107.0,102.0,13.4,1505.3,326.3,-0.7,1.8,2470.431,13.33,0.025,241.4
2020-07-27T03:25:03,42.805,6.029,-0.017,-0.007,0.006,106.0,107.0,101.0,13.4,1505.3,326.9,-0.7,1.8,2470.396,13.33,0.018,247.6
2020-07-27T03:28:03,42.805,6.029,-0.007,-0.013,-0.013,105.0,106.0,101.0,13.4,1505.3,328.2,-0.7,1.9,2470.411,13.33,0.014,208.3
2020-07-27T03:31:03,42.805,6.029,-0.02,-0.02,-0.044,106.0,107.0,102.0,13.3,1505.3,322.8,-0.7,1.8,2470.38,13.33,0.028,225.0
2020-07-27T03:34:03,42.805,6.029,-0.017,-0.007,-0.006,105.0,106.0,103.0,13.3,1505.3,326.5,-0.7,1.8,2470.404,13.33,0.018,247.6
2020-07-27T03:37:03,42.805,6.029,-0.007,-0.004,-0.027,106.0,107.0,103.0,13.4,1505.3,326.5,-0.7,1.8,2470.38,13.33,0.008,240.3
2020-07-27T03:40:03,42.805,6.029,0.01,0.011,0.015,104.0,107.0,101.0,13.4,1505.3,325.5,-0.7,1.8,2470.442,13.33,0.014,42.3
2020-07-27T03:43:03,42.805,6.029,-0.021,-0.009,-0.015,105.0,106.0,102.0,13.4,1505.3,326.7,-0.7,1.9,2470.432,13.33,0.022,246.8
2020-07-27T03:46:03,42.805,6.029,-0.042,-0.003,-0.035,104.0,107.0,101.0,13.4,1505.3,327.3,-0.7,1.9,2470.412,13.33,0.042,265.9
2020-07-27T03:49:03,42.805,6.029,0.0,-0.001,-0.003,105.0,108.0,102.0,13.4,1505.3,324.3,-0.7,1.9,2470.375,13.33,0.001,180.0
2020-07-27T03:52:03,42.805,6.029,-0.003,-0.005,0.014,105.0,106.0,103.0,13.4,1505.3,326.7,-0.7,1.8,2470.367,13.33,0.005,211.0
2020-07-27T03:55:03,42.805,6.029,-0.015,0.005,0.01,105.0,107.0,102.0,13.4,1505.3,323.5,-0.7,1.8,2470.406,13.33,0.015,288.4
2020-07-27T03:58:03,42.805,6.029,-0.012,-0.022,-0.016,105.0,106.0,102.0,13.4,1505.3,325.0,-0.7,1.8,2470.389,13.33,0.025,208.6
2020-07-27T04:04:03,42.805,6.029,0.001,-0.004,0.031,104.0,108.0,103.0,13.4,1505.3,326.6,-0.8,1.8,2470.42,13.31,0.004,166.0
2020-07-27T04:07:03,42.805,6.029,0.017,-0.017,-0.019,106.0,106.0,102.0,13.4,1505.3,326.6,-0.7,1.8,2470.383,13.32,0.024,135.0
2020-07-27T04:10:03,42.805,6.029,-0.027,0.0,0.013,105.0,108.0,102.0,13.4,1505.3,325.0,-0.7,1.8,2470.407,13.32,0.026,270.0
2020-07-27T04:13:03,42.805,6.029,0.004,-0.004,0.022,106.0,108.0,102.0,13.4,1505.3,326.7,-0.7,1.8,2470.401,13.33,0.005,135.0
2020-07-27T04:16:03,42.805,6.029,0.008,0.0,0.0,105.0,107.0,101.0,13.3,1505.3,322.8,-0.7,1.8,2470.383,13.33,0.008,90.0
2020-07-27T04:19:03,42.805,6.029,-0.006,-0.004,0.015,105.0,107.0,102.0,13.4,1505.3,325.2,-0.7,1.8,2470.427,13.33,0.007,236.3
2020-07-27T04:22:03,42.805,6.029,-0.036,-0.026,-0.035,106.0,107.0,102.0,13.4,1505.3,325.9,-0.7,1.8,2470.382,13.33,0.044,234.2
2020-07-27T04:25:03,42.805,6.029,-0.007,-0.011,-0.01,105.0,107.0,102.0,13.3,1505.3,325.0,-0.7,1.8,2470.362,13.33,0.013,212.5
2020-07-27T04:28:03,42.805,6.029,-0.03,-0.014,-0.004,105.0,107.0,101.0,13.3,1505.3,325.4,-0.7,1.9,2470.408,13.33,0.033,245.0
2020-07-27T04:31:03,42.805,6.029,-0.024,-0.01,0.0,105.0,106.0,102.0,13.4,1505.3,326.7,-0.7,1.9,2470.394,13.33,0.026,247.4
2020-07-27T04:34:03,42.805,6.029,-0.037,0.001,-0.031,105.0,107.0,101.0,13.4,1505.3,325.4,-0.7,1.8,2470.377,13.33,0.037,271.5
2020-07-27T04:37:03,42.805,6.029,-0.028,0.004,-0.043,105.0,107.0,101.0,13.3,1505.3,325.3,-0.7,1.8,2470.393,13.33,0.028,278.1
2020-07-27T04:40:03,42.805,6.029,-0.024,0.008,0.0,104.0,106.0,102.0,13.4,1505.3,327.7,-0.7,1.8,2470.384,13.33,0.025,288.4
2020-07-27T04:43:03,42.805,6.029,0.005,0.001,-0.027,104.0,107.0,102.0,13.4,1505.3,326.1,-0.7,1.8,2470.383,13.33,0.005,78.7
2020-07-27T04:46:03,42.805,6.029,-0.007,-0.014,0.006,104.0,108.0,102.0,13.3,1505.3,327.7,-0.7,1.8,2470.357,13.33,0.015,206.6
2020-07-27T04:49:03,42.805,6.029,-0.016,-0.008,-0.021,105.0,108.0,102.0,13.3,1505.3,325.0,-0.7,1.8,2470.364,13.33,0.017,243.4
2020-07-27T04:52:03,42.805,6.029,0.008,-0.003,-0.007,105.0,107.0,101.0,13.3,1505.3,328.4,-0.7,1.8,2470.338,13.33,0.008,110.6
2020-07-27T04:55:03,42.805,6.029,-0.015,0.006,-0.018,106.0,107.0,104.0,13.4,1505.3,324.2,-0.7,1.9,2470.347,13.33,0.016,291.8
2020-07-27T04:58:03,42.805,6.029,-0.022,-0.011,0.008,105.0,106.0,102.0,13.4,1505.3,326.6,-0.7,1.8,2470.391,13.33,0.024,243.4
2020-07-27T05:04:03,42.805,6.029,0.015,-0.034,-0.02,104.0,107.0,103.0,13.4,1505.3,328.2,-0.7,1.8,2470.401,13.31,0.037,156.2
2020-07-27T05:07:03,42.805,6.029,-0.013,-0.007,0.004,105.0,107.0,102.0,13.4,1505.3,322.8,-0.7,1.8,2470.391,13.32,0.014,241.7
2020-07-27T05:10:03,42.805,6.029,-0.022,-0.003,0.002,106.0,107.0,102.0,13.4,1505.3,326.2,-0.7,1.8,2470.38,13.32,0.022,262.2
2020-07-27T05:13:03,42.805,6.029,-0.012,-0.013,-0.001,105.0,107.0,102.0,13.4,1505.3,325.2,-0.7,1.8,2470.346,13.33,0.017,222.7
2020-07-27T05:16:03,42.805,6.029,0.0,-0.007,-0.01,106.0,105.0,102.0,13.4,1505.3,324.7,-0.8,1.8,2470.377,13.33,0.007,180.0
2020-07-27T05:19:03,42.805,6.029,0.02,-0.013,-0.001,105.0,107.0,102.0,13.4,1505.3,326.4,-0.7,1.9,2470.319,13.33,0.023,123.0
2020-07-27T05:22:03,42.805,6.029,-0.017,0.013,-0.013,105.0,107.0,103.0,13.4,1505.3,327.9,-0.7,1.8,2470.342,13.33,0.021,307.4
2020-07-27T05:25:03,42.805,6.029,0.0,-0.004,-0.012,105.0,107.0,103.0,13.3,1505.3,326.6,-0.7,1.9,2470.391,13.33,0.004,180.0
2020-07-27T05:28:03,42.805,6.029,0.018,-0.01,0.016,105.0,106.0,102.0,13.4,1505.3,325.9,-0.7,1.9,2470.34,13.33,0.02,119.1
2020-07-27T05:31:03,42.805,6.029,-0.015,-0.029,-0.018,105.0,107.0,101.0,13.4,1505.3,323.8,-0.7,1.8,2470.337,13.33,0.032,207.4
2020-07-27T05:34:03,42.805,6.029,0.011,-0.01,0.004,107.0,109.0,101.0,13.3,1505.3,325.6,-0.7,1.8,2470.391,13.33,0.014,132.3
2020-07-27T05:37:03,42.805,6.029,0.028,-0.029,0.0,105.0,108.0,102.0,13.4,1505.3,323.0,-0.7,1.9,2470.36,13.33,0.04,136.0
2020-07-27T05:40:03,42.805,6.029,0.012,-0.001,0.018,105.0,106.0,102.0,13.3,1505.3,325.9,-0.7,1.8,2470.326,13.33,0.012,94.8
2020-07-27T05:43:03,42.805,6.029,0.012,-0.021,0.029,105.0,109.0,102.0,13.3,1505.3,326.0,-0.7,1.8,2470.368,13.33,0.024,150.3
2020-07-27T05:46:03,42.805,6.029,0.008,-0.008,0.035,106.0,107.0,102.0,13.4,1505.3,322.8,-0.7,1.8,2470.361,13.33,0.011,135.0
2020-07-27T05:49:03,42.805,6.029,-0.012,-0.006,-0.016,106.0,107.0,101.0,13.3,1505.3,326.9,-0.7,1.8,2470.322,13.33,0.013,243.4
2020-07-27T05:52:03,42.805,6.029,-0.006,-0.002,-0.021,106.0,106.0,102.0,13.4,1505.3,326.9,-0.7,1.8,2470.329,13.33,0.006,251.6
2020-07-27T05:55:03,42.805,6.029,-0.014,0.015,-0.013,106.0,107.0,103.0,13.4,1505.3,326.2,-0.7,1.8,2470.342,13.33,0.02,317.0
2020-07-27T05:58:03,42.805,6.029,0.007,-0.018,0.037,104.0,107.0,102.0,13.4,1505.3,323.7,-0.7,1.9,2470.339,13.33,0.019,158.8
2020-07-27T06:04:03,42.805,6.029,-0.012,-0.002,-0.003,105.0,106.0,101.0,13.3,1505.3,327.5,-0.7,1.8,2470.308,13.31,0.012,260.5
2020-07-27T06:07:03,42.805,6.029,-0.004,-0.01,-0.005,105.0,106.0,102.0,13.4,1505.3,323.4,-0.7,1.9,2470.339,13.32,0.01,201.8
2020-07-27T06:10:03,42.805,6.029,0.0,-0.009,-0.003,106.0,107.0,101.0,13.4,1505.3,327.0,-0.7,1.8,2470.343,13.32,0.009,180.0
2020-07-27T06:13:03,42.805,6.029,-0.043,-0.007,0.0,105.0,108.0,102.0,13.3,1505.3,326.0,-0.7,1.9,2470.377,13.33,0.043,260.8
2020-07-27T06:16:03,42.805,6.029,-0.015,0.003,-0.009,106.0,106.0,102.0,13.3,1505.3,325.0,-0.7,1.8,2470.345,13.33,0.015,281.3
2020-07-27T06:19:03,42.805,6.029,-0.003,-0.02,-0.02,105.0,107.0,102.0,13.3,1505.3,326.0,-0.7,1.8,2470.338,13.33,0.02,188.5
2020-07-27T06:22:03,42.805,6.029,0.002,-0.006,-0.011,106.0,106.0,102.0,13.3,1505.3,324.5,-0.7,1.8,2470.295,13.33,0.006,161.6
2020-07-27T06:25:03,42.805,6.029,-0.018,-0.014,-0.014,105.0,107.0,102.0,13.4,1505.3,326.6,-0.7,1.8,2470.339,13.33,0.022,232.1
2020-07-27T06:28:03,42.805,6.029,-0.033,-0.019,-0.028,106.0,107.0,103.0,13.3,1505.3,323.0,-0.7,1.8,2470.328,13.33,0.038,240.1
2020-07-27T06:31:03,42.805,6.029,0.001,-0.005,0.012,104.0,107.0,102.0,13.4,1505.3,324.1,-0.7,1.9,2470.34,13.33,0.005,168.7
2020-07-27T06:34:03,42.805,6.029,-0.05,-0.01,-0.05,106.0,107.0,102.0,13.4,1505.3,326.5,-0.7,1.8,2470.334,13.33,0.05,258.7
2020-07-27T06:37:03,42.805,6.029,-0.022,-0.019,-0.015,105.0,108.0,102.0,13.4,1505.3,322.9,-0.7,1.8,2470.331,13.33,0.029,229.2
2020-07-27T06:40:03,42.805,6.029,0.003,0.01,-0.013,105.0,108.0,103.0,13.4,1505.3,326.3,-0.7,1.8,2470.34,13.33,0.01,16.7
2020-07-27T06:43:03,42.805,6.029,-0.005,0.017,0.011,105.0,107.0,102.0,13.3,1505.3,327.0,-0.7,1.8,2470.319,13.33,0.017,343.6
2020-07-27T06:46:03,42.805,6.029,-0.003,-0.025,-0.012,105.0,108.0,102.0,13.4,1505.3,324.5,-0.7,1.8,2470.308,13.33,0.025,186.8
2020-07-27T06:49:03,42.805,6.029,-0.003,0.004,-0.026,105.0,106.0,102.0,13.3,1505.3,324.5,-0.7,1.8,2470.315,13.33,0.005,323.1
2020-07-27T06:52:03,42.805,6.029,-0.021,-0.015,-0.009,105.0,107.0,102.0,13.3,1505.3,326.0,-0.8,1.8,2470.34,13.33,0.025,234.5
2020-07-27T06:55:03,42.805,6.029,-0.036,0.009,-0.006,105.0,106.0,102.0,13.4,1505.3,322.8,-0.7,1.9,2470.31,13.33,0.037,284.0
2020-07-27T06:58:03,42.805,6.029,0.009,-0.003,0.018,104.0,107.0,102.0,13.3,1505.3,325.9,-0.7,1.9,2470.303,13.33,0.009,108.4
2020-07-27T07:04:03,42.805,6.029,-0.009,-0.015,0.017,105.0,108.0,102.0,13.4,1505.3,326.4,-0.7,1.8,2470.347,13.31,0.017,211.0
2020-07-27T07:07:03,42.805,6.029,-0.01,-0.015,-0.023,105.0,106.0,102.0,13.4,1505.3,325.9,-0.7,1.8,2470.32,13.32,0.018,213.7
2020-07-27T07:10:03,42.805,6.029,-0.032,-0.013,-0.032,106.0,109.0,102.0,13.4,1505.3,326.3,-0.7,1.8,2470.315,13.32,0.034,247.9
2020-07-27T07:13:03,42.805,6.029,0.009,-0.006,0.016,106.0,106.0,102.0,13.4,1505.3,327.9,-0.7,1.9,2470.332,13.33,0.01,123.7
2020-07-27T07:16:03,42.805,6.029,-0.016,-0.011,-0.016,105.0,107.0,102.0,13.4,1505.3,324.3,-0.7,1.8,2470.338,13.33,0.019,235.5
2020-07-27T07:19:03,42.805,6.029,-0.006,-0.011,-0.033,105.0,106.0,102.0,13.3,1505.3,324.9,-0.7,1.9,2470.344,13.33,0.012,208.6
2020-07-27T07:22:03,42.805,6.029,-0.001,-0.026,0.0,105.0,105.0,102.0,13.4,1505.3,323.9,-0.7,1.9,2470.301,13.33,0.026,182.2
2020-07-27T07:25:03,42.805,6.029,-0.015,-0.016,-0.015,105.0,107.0,101.0,13.4,1505.3,327.1,-0.7,1.8,2470.366,13.33,0.021,223.1
2020-07-27T07:28:03,42.805,6.029,0.012,-0.011,0.024,106.0,107.0,103.0,13.4,1505.3,326.3,-0.7,1.8,2470.326,13.33,0.016,132.5
2020-07-27T07:34:03,42.805,6.029,0.0,-0.008,-0.004,106.0,106.0,102.0,13.4,1505.3,324.3,-0.8,1.8,2470.349,13.31,0.008,180.0
2020-07-27T07:37:03,42.805,6.029,-0.027,-0.002,0.0,104.0,107.0,102.0,13.4,1505.3,326.2,-0.7,1.8,2470.342,13.32,0.027,265.8
2020-07-27T07:40:03,42.805,6.029,0.003,-0.015,-0.041,106.0,106.0,101.0,13.4,1505.3,323.3,-0.7,1.8,2470.32,13.32,0.015,168.7
2020-07-27T07:43:03,42.805,6.029,-0.014,-0.012,-0.045,104.0,106.0,101.0,13.4,1505.3,323.8,-0.7,1.8,2470.338,13.33,0.018,229.4
2020-07-27T07:46:03,42.805,6.029,0.007,-0.028,-0.026,104.0,106.0,103.0,13.4,1505.3,327.7,-0.7,1.8,2470.349,13.33,0.028,166.0
2020-07-27T07:49:03,42.805,6.029,-0.019,-0.012,-0.01,105.0,106.0,101.0,13.4,1505.3,325.7,-0.7,1.8,2470.303,13.33,0.022,237.7
2020-07-27T07:52:03,42.805,6.029,-0.007,-0.018,-0.03,106.0,106.0,101.0,13.4,1505.3,323.5,-0.7,1.8,2470.309,13.33,0.019,201.2
2020-07-27T07:55:03,42.805,6.029,-0.003,0.0,-0.009,104.0,106.0,102.0,13.4,1505.3,325.5,-0.7,1.8,2470.317,13.33,0.003,270.0
2020-07-27T07:58:03,42.805,6.029,-0.008,-0.021,-0.034,105.0,106.0,103.0,13.4,1505.3,325.3,-0.7,1.8,2470.329,13.33,0.022,200.9
2020-07-27T08:04:03,42.805,6.029,-0.015,-0.031,-0.01,105.0,107.0,102.0,13.4,1505.3,327.2,-0.8,1.8,2470.352,13.31,0.034,205.8
2020-07-27T08:07:03,42.805,6.029,-0.006,-0.022,-0.02,105.0,107.0,102.0,13.4,1505.3,326.7,-0.7,1.8,2470.316,13.32,0.022,195.3
2020-07-27T08:10:03,42.805,6.029,-0.017,-0.022,-0.012,106.0,108.0,103.0,13.4,1505.3,324.7,-0.7,1.8,2470.341,13.32,0.027,217.7
2020-07-27T08:13:03,42.805,6.029,0.0,-0.005,0.003,105.0,106.0,103.0,13.3,1505.3,326.5,-0.7,1.8,2470.328,13.33,0.005,180.0
2020-07-27T08:16:03,42.805,6.029,0.006,-0.003,-0.025,105.0,106.0,102.0,13.3,1505.3,323.8,-0.7,1.8,2470.347,13.33,0.006,116.6
2020-07-27T08:19:03,42.805,6.029,-0.002,0.004,0.024,106.0,107.0,102.0,13.4,1505.3,325.2,-0.7,1.9,2470.359,13.33,0.004,333.4
2020-07-27T08:22:03,42.805,6.029,-0.012,-0.02,-0.016,106.0,106.0,102.0,13.3,1505.3,326.4,-0.7,1.8,2470.298,13.33,0.023,211.0
2020-07-27T08:25:03,42.805,6.029,0.001,-0.005,-0.01,105.0,106.0,102.0,13.4,1505.3,323.9,-0.7,1.8,2470.349,13.33,0.005,168.7
2020-07-27T08:28:03,42.805,6.029,-0.004,-0.009,0.004,105.0,107.0,101.0,13.4,1505.3,325.5,-0.7,1.8,2470.332,13.33,0.009,204.0
2020-07-27T08:31:03,42.805,6.029,-0.026,-0.019,-0.015,103.0,107.0,103.0,13.4,1505.3,325.0,-0.7,1.8,2470.338,13.33,0.032,233.8
2020-07-27T08:34:03,42.805,6.029,-0.01,-0.017,-0.02,105.0,107.0,102.0,13.4,1505.3,328.3,-0.7,1.8,2470.324,13.33,0.019,210.5
2020-07-27T08:37:03,42.805,6.029,-0.008,-0.001,-0.022,105.0,106.0,102.0,13.3,1505.3,323.9,-0.7,1.8,2470.31,13.33,0.008,262.9
2020-07-27T08:40:03,42.805,6.029,0.008,-0.011,-0.006,105.0,106.0,101.0,13.3,1505.3,324.9,-0.7,1.8,2470.373,13.33,0.013,144.0
2020-07-27T08:43:03,42.805,6.029,0.014,-0.003,-0.013,106.0,105.0,101.0,13.3,1505.3,323.2,-0.7,1.8,2470.335,13.33,0.014,102.1
2020-07-27T08:46:03,42.805,6.029,0.016,-0.008,0.007,105.0,106.0,101.0,13.4,1505.3,327.3,-0.7,1.9,2470.37,13.33,0.017,116.6
2020-07-27T08:49:03,42.805,6.029,0.0,-0.017,-0.017,107.0,106.0,101.0,13.4,1505.3,325.2,-0.7,1.8,2470.31,13.33,0.017,180.0
2020-07-27T08:52:03,42.805,6.029,-0.024,-0.008,-0.074,106.0,107.0,101.0,13.4,1505.3,327.2,-0.7,1.8,2470.31,13.33,0.025,251.6
2020-07-27T08:55:03,42.805,6.029,-0.011,-0.004,-0.027,104.0,107.0,102.0,13.3,1505.3,323.9,-0.7,1.8,2470.288,13.33,0.011,250.0
2020-07-27T08:58:03,42.805,6.029,0.014,-0.019,0.001,105.0,106.0,102.0,13.4,1505.3,326.7,-0.7,1.8,2470.322,13.33,0.023,143.6
2020-07-27T09:04:03,42.805,6.029,-0.009,-0.029,-0.018,105.0,106.0,104.0,13.3,1505.3,325.6,-0.7,1.8,2470.361,13.31,0.03,197.2
2020-07-27T09:07:03,42.805,6.029,0.0,-0.028,-0.031,106.0,106.0,102.0,13.4,1505.3,327.7,-0.7,1.9,2470.395,13.31,0.028,180.0
2020-07-27T09:10:03,42.805,6.029,-0.031,-0.015,-0.014,105.0,106.0,102.0,13.3,1505.3,324.9,-0.7,1.8,2470.339,13.32,0.034,244.2
2020-07-27T09:13:03,42.805,6.029,-0.019,-0.001,-0.035,105.0,107.0,103.0,13.4,1505.3,323.0,-0.7,1.8,2470.319,13.32,0.019,267.0
2020-07-27T09:16:03,42.805,6.029,-0.019,-0.019,-0.009,105.0,106.0,103.0,13.4,1505.3,326.9,-0.7,1.8,2470.404,13.32,0.026,225.0
2020-07-27T09:19:03,42.805,6.029,0.011,-0.008,0.0,105.0,106.0,102.0,13.3,1505.3,327.1,-0.7,1.9,2470.335,13.33,0.013,126.0
2020-07-27T09:22:03,42.805,6.029,0.018,-0.035,-0.025,105.0,105.0,102.0,13.3,1505.3,323.6,-0.7,1.8,2470.341,13.33,0.039,152.8
2020-07-27T09:25:03,42.805,6.029,0.034,-0.012,-0.019,105.0,105.0,102.0,13.3,1505.3,324.9,-0.7,1.8,2470.38,13.33,0.036,109.4
2020-07-27T09:28:03,42.805,6.029,0.0,-0.01,-0.036,104.0,106.0,102.0,13.4,1505.3,326.4,-0.7,1.8,2470.349,13.33,0.01,180.0
2020-07-27T09:31:03,42.805,6.029,-0.033,-0.019,-0.078,105.0,108.0,102.0,13.3,1505.3,322.7,-0.7,1.8,2470.382,13.33,0.038,240.1
2020-07-27T09:34:03,42.805,6.029,-0.021,-0.011,-0.034,104.0,106.0,102.0,13.3,1505.3,324.1,-0.7,1.8,2470.393,13.33,0.023,242.4
2020-07-27T09:37:03,42.805,6.029,-0.02,-0.02,-0.022,105.0,107.0,101.0,13.4,1505.3,322.7,-0.7,1.8,2470.366,13.33,0.028,225.0
2020-07-27T09:40:03,42.805,6.029,0.037,-0.028,0.048,104.0,107.0,102.0,13.4,1505.3,326.3,-0.7,1.8,2470.372,13.33,0.046,127.1
2020-07-27T09:43:03,42.805,6.029,0.027,-0.002,0.016,105.0,106.0,102.0,13.3,1505.3,325.3,-0.7,1.8,2470.36,13.33,0.027,94.2
2020-07-27T09:46:03,42.805,6.029,-0.006,-0.008,-0.037,105.0,106.0,102.0,13.3,1505.3,327.6,-0.7,1.8,2470.327,13.33,0.01,216.9
2020-07-27T09:49:03,42.805,6.029,-0.023,-0.015,-0.024,105.0,107.0,102.0,13.3,1505.3,322.8,-0.7,1.8,2470.333,13.33,0.027,236.9
2020-07-27T09:52:03,42.805,6.029,0.012,-0.016,0.027,106.0,107.0,101.0,13.3,1505.3,325.3,-0.8,1.8,2470.389,13.33,0.02,143.1
2020-07-27T09:55:03,42.805,6.029,0.033,-0.016,0.039,106.0,107.0,101.0,13.4,1505.3,325.6,-0.7,1.9,2470.377,13.33,0.036,115.9
2020-07-27T09:58:03,42.805,6.029,0.016,-0.006,0.022,105.0,105.0,104.0,13.4,1505.3,324.5,-0.7,1.9,2470.337,13.33,0.017,110.6